Change the Weather History Date:

Friday, August 16, 2013

  Actual Average Record
Temperature  
Mean Temperature 73 °F 82 °F  
Max Temperature 83 °F 92 °F 105 °F (2007)
Min Temperature 63 °F 73 °F 57 °F (1963)
Degree Days  
Heating Degree Days 0 0  
Month to date heating degree days 0 0  
Since 1 June heating degree days 0 0  
Since 1 July heating degree days 0 0  
Cooling Degree Days 8 17  
Month to date cooling degree days 250 284  
Year to date cooling degree days 1470 1592  
Since 1 June cooling degree days 1185 1271  
Growing Degree Days 22 (Base 50)    
Moisture  
Dew Point 63 °F    
Average Humidity 67    
Maximum Humidity 79    
Minimum Humidity 54    
Precipitation  
Precipitation 0.01 in 0.09 in 1.88 in (1880)
Month to date precipitation 1.52 1.70  
Year to date precipitation 45.30 34.20  
Snow  
Snow 0.00 in 0.00 in - ()
Month to date snowfall 0.0 0.0  
Since 1 June snowfall 0.0 0.0  
Since 1 July snowfall 0.0 0.0  
Snow Depth 0.00 in    
Sea Level Pressure  
Sea Level Pressure 30.03 in    
Wind  
Wind Speed 7 mph (NE)    
Max Wind Speed 15 mph    
Max Gust Speed 21 mph    
Visibility 10 miles    
Events Rain , Thunderstorm    
T = Trace of Precipitation, MM = Missing Value Source: NWS Daily Summary

Daily Weather History Graph

Daily Weather History Graph

Search for Another Location

Airport or City:

Trip Planner

Search our weather history database for the weather conditions in past years. The results will help you decide how hot, cold, wet, or windy it might be!

Date:

Astronomy

Aug. 16, 2013 Rise Set
Actual Time 6:20 AM CDT 7:46 PM CDT
Civil Twilight 5:54 AM CDT 8:13 PM CDT
Nautical Twilight 5:22 AM CDT 8:45 PM CDT
Astronomical Twilight 4:48 AM CDT 9:18 PM CDT
Moon 4:01 PM CDT (8/16) 1:27 AM CDT (8/16)
Length of Visible Light 14h 19m
Length of Day
13h 26m
Waxing Gibbous, 75% of the Moon is Illuminated
Aug 16
Waxing Gibbous
Aug 20
Full
Aug 28
Last Quarter
Sep 5
New
Sep 12
First Quarter

Hourly Weather History & Observations

Time (CDT) Temp. Heat Index Dew Point Humidity Pressure Visibility Wind Dir Wind Speed Gust Speed Precip Events Conditions
12:54 AM 69.1 °F - 57.0 °F 65% 30.02 in 10.0 mi NNE 6.9 mph - N/A   Clear
1:54 AM 68.0 °F - 57.0 °F 68% 30.00 in 10.0 mi ENE 6.9 mph - N/A   Partly Cloudy
2:54 AM 66.0 °F - 57.0 °F 73% 29.99 in 10.0 mi Calm Calm - N/A   Clear
3:54 AM 66.0 °F - 57.0 °F 73% 30.00 in 10.0 mi Variable 4.6 mph - N/A   Partly Cloudy
4:54 AM 66.0 °F - 57.0 °F 73% 30.00 in 10.0 mi NE 5.8 mph - N/A   Clear
5:54 AM 64.0 °F - 57.9 °F 80% 30.01 in 10.0 mi North 4.6 mph - N/A   Scattered Clouds
6:54 AM 64.9 °F - 57.9 °F 78% 30.03 in 10.0 mi NE 5.8 mph - N/A   Mostly Cloudy
7:54 AM 66.9 °F - 59.0 °F 76% 30.02 in 10.0 mi ENE 5.8 mph - N/A   Scattered Clouds
8:26 AM 69.8 °F - 60.8 °F 73% 30.04 in 10.0 mi East 5.8 mph - N/A   Scattered Clouds
8:34 AM 69.8 °F - 60.8 °F 73% 30.04 in 10.0 mi East 5.8 mph - N/A   Mostly Cloudy
8:54 AM 69.1 °F - 62.1 °F 78% 30.04 in 10.0 mi Variable 5.8 mph - N/A   Overcast
9:11 AM 69.8 °F - 62.6 °F 78% 30.05 in 10.0 mi Calm Calm - N/A   Overcast
9:54 AM 72.0 °F - 64.0 °F 76% 30.04 in 10.0 mi East 8.1 mph - N/A   Overcast
10:54 AM 73.9 °F - 64.9 °F 73% 30.04 in 10.0 mi ESE 5.8 mph - N/A   Mostly Cloudy
11:20 AM 75.2 °F - 64.4 °F 69% 30.05 in 10.0 mi Variable 3.5 mph - N/A   Mostly Cloudy
11:27 AM 75.2 °F - 64.4 °F 69% 30.06 in 10.0 mi Variable 4.6 mph - N/A   Overcast
11:54 AM 77.0 °F - 64.0 °F 64% 30.05 in 10.0 mi Calm Calm - N/A   Overcast
12:54 PM 79.0 °F - 64.0 °F 60% 30.04 in 10.0 mi Calm Calm - N/A   Overcast
1:12 PM 80.6 °F 82.3 °F 64.4 °F 58% 30.04 in 10.0 mi North 4.6 mph - N/A   Overcast
1:42 PM 78.8 °F - 62.6 °F 57% 30.04 in 10.0 mi Calm Calm - N/A   Mostly Cloudy
1:54 PM 80.1 °F 81.2 °F 62.1 °F 54% 30.03 in 10.0 mi Calm Calm - N/A   Overcast
2:54 PM 80.1 °F 81.7 °F 64.0 °F 58% 30.00 in 10.0 mi Variable 3.5 mph - N/A   Mostly Cloudy
3:54 PM 81.0 °F 82.5 °F 64.0 °F 56% 29.99 in 10.0 mi Variable 5.8 mph - N/A   Overcast
4:54 PM 81.0 °F 82.7 °F 64.9 °F 58% 30.00 in 10.0 mi NNE 9.2 mph - N/A   Overcast
5:54 PM 78.1 °F - 66.9 °F 68% 30.00 in 10.0 mi North 11.5 mph - N/A   Overcast
6:31 PM 75.2 °F - 66.2 °F 73% 30.01 in 10.0 mi NNW 8.1 mph - N/A   Overcast
6:54 PM 75.9 °F - 66.9 °F 74% 30.01 in 10.0 mi North 11.5 mph 20.7 mph N/A   Overcast
7:47 PM 75.2 °F - 66.2 °F 73% 30.03 in 10.0 mi North 11.5 mph - N/A   Overcast
7:54 PM 75.0 °F - 66.9 °F 76% 30.03 in 10.0 mi NNE 9.2 mph - N/A   Overcast
8:36 PM 75.2 °F - 66.2 °F 73% 30.04 in 10.0 mi NNE 10.4 mph - N/A Thunderstorm Thunderstorm
8:54 PM 75.0 °F - 66.9 °F 76% 30.04 in 10.0 mi NE 12.7 mph - N/A Thunderstorm Thunderstorm
9:22 PM 75.2 °F - 66.2 °F 73% 30.06 in 10.0 mi NNE 11.5 mph - N/A   Overcast
9:54 PM 73.9 °F - 68.0 °F 82% 30.05 in 10.0 mi NE 13.8 mph - 0.00 in Rain Light Rain
10:54 PM 73.0 °F - 68.0 °F 84% 30.05 in 10.0 mi NNE 6.9 mph - 0.01 in   Overcast
11:36 PM 73.4 °F - 66.2 °F 78% 30.05 in 10.0 mi East 12.7 mph - N/A   Mostly Cloudy
11:54 PM 73.9 °F - 66.9 °F 79% 30.03 in 10.0 mi East 10.4 mph - N/A   Overcast